Regional Weather Roundup
Issued by NWS

Home | Current Version | Previous Version | Graphics & Text | Print | Product List | Glossary On
Versions: 1 2 3 4 5 6 7 8 9 10 11 12 13 14 15 16 17 18 19 20 21 22 23 24 25 26 27 28 29 30 31 32 33 34 35 36 37 38 39 40 41 42 43 44 45 46 47 48 49 50
264
ASUS45 KPSR 242310
RWRAZ

ARIZONA REGIONAL HOURLY WEATHER ROUNDUP
NATIONAL WEATHER SERVICE TUCSON AZ
400 PM MST WED MAY 24 2017

NOTE: FAIR INDICATES FEW OR NO CLOUDS BELOW 12,000 FEET WITH NO
SIGNIFICANT WEATHER AND/OR OBSTRUCTIONS TO VISIBILITY.

AZZ001>003-036-250000-
NORTHWEST ARIZONA

CITY           SKY/WX    TMP DP  RH WIND       PRES   REMARKS
BULLHEAD CITY  PTSUNNY  108  23   5 S22       29.51F
KINGMAN        PTSUNNY   94  28   9 SW21G32   29.74F
$$

AZZ004>008-015-016-018-250000-
NORTH CENTRAL ARIZONA

CITY           SKY/WX    TMP DP  RH WIND       PRES   REMARKS
GRAND CANYON   SUNNY     78  23  13 W17G30    29.94F
WILLIAMS       CLEAR     77  23  13 SW18      29.99F
PRESCOTT       SUNNY     88  22   9 SW20G28   29.88F
FLAGSTAFF      SUNNY     77  19  11 W15G31    29.99F
PAYSON         CLEAR     86  19   8 SW13G26   29.94F
PAGE           SUNNY     93  24   8 SW14G28   29.68F
$$

AZZ009>014-017-250000-
NORTHEAST ARIZONA

CITY           SKY/WX    TMP DP  RH WIND       PRES   REMARKS
WINSLOW        SUNNY     93  21   7 W23G29    29.83F
SAINT JOHNS    SUNNY     88  14   6 W20G29    29.87F
WINDOW ROCK    SUNNY     82  18   9 W23G32    29.94F
SHOW LOW       SUNNY     81  16   9 SW18G24   29.99S
$$

AZZ023-250000-
GREATER PHOENIX AREA

CITY           SKY/WX    TMP DP  RH WIND       PRES   REMARKS
PHOENIX        MOSUNNY  106  25   6 SW14G28   29.60F
BUCKEYE        PTCLDY   102  25   6 SW18      29.60F
GLENDALE       MOSUNNY  108  23   5 SW13G25   29.62F
LUKE AFB       SUNNY    105  26   6 SW18      29.59F
DEER VALLEY    SUNNY    104  23   5 SW17G25   29.62F
SCOTTSDALE     SUNNY    103  27   7 W15G28    29.65F
MESA-GATEWAY   MOSUNNY  102  27   7 SW6       29.64F
CHANDLER       SUNNY    106  25   6 W13       29.62F
$$

AZZ027-028-250000-
SOUTHWEST MARICOPA COUNTY AND PINAL COUNTY

CITY           SKY/WX    TMP DP  RH WIND       PRES   REMARKS
CASA GRANDE    SUNNY    104  30   7 S9        29.64F
$$

AZZ503-504-507>509-250000-
SOUTHEAST ARIZONA

CITY           SKY/WX    TMP DP  RH WIND       PRES   REMARKS
TUCSON         SUNNY    102  19   5 VRB3      29.74F
DAVIS-MONTHAN  SUNNY    101  19   5 W7        29.74F
RYAN FIELD     CLEAR    102  19   5 SW16G23   29.74F
NOGALES        SUNNY     97  17   5 SW10G23   29.85F
SIERRA VISTA   SUNNY     93  12   5 W15G21    29.91F
DOUGLAS        SUNNY     96  10   4 SW7       29.83F
SAFFORD        SUNNY    101  17   5 NW23G31   29.72F
$$

AZZ020-021-025-026-031-250000-
SOUTHWEST ARIZONA

CITY           SKY/WX    TMP DP  RH WIND       PRES   REMARKS
YUMA           PTSUNNY  107  20   4 W10       29.57F
$$

CAZ031-033-041-043-047-048-061-250000-
SOUTHERN CALIFORNIA

CITY           SKY/WX    TMP DP  RH WIND       PRES   REMARKS
DOWNTOWN L.A.  SUNNY     70  56  61 VRB3      29.81F
L.A. AIRPORT   MOSUNNY   64  55  72 W16       29.83F
SAN DIEGO      PTSUNNY   69  55  60 W9        29.86F
BURBANK        SUNNY     76  52  43 S12       29.79F
ONTARIO        MOSUNNY   84  45  25 W14G24    29.79F
RIVERSIDE      SUNNY     85  47  26 W12       29.77F
PALM SPRINGS   MOSUNNY  102  26   7 NW16G31   29.59F
EL CENTRO NAS  PTSUNNY  105  19   4 W29       29.59F
IMPERIAL       MOSUNNY  105  36   9 W25G32    29.55F
BLYTHE         MOSUNNY  109   7   2 SW21G28   29.55F
NEEDLES        PTSUNNY  108  15   3 W14G25    29.54F
$$

NVZ020-UTZ003-250000-
SOUTHERN NEVADA-UTAH

CITY           SKY/WX    TMP DP  RH WIND       PRES   REMARKS
LAS VEGAS      PTSUNNY   99   8   3 W16G25    29.57F
SALT LAKE CITY CLOUDY    83  38  20 W9        29.59F
$$

NMZ009-TXZ055-250000-
NEW MEXICO-WEST TEXAS

CITY           SKY/WX    TMP DP  RH WIND       PRES   REMARKS
ALBUQUERQUE    MOSUNNY   88  17   7 W16G25    29.80F
EL PASO        SUNNY     95  22   7 W15G23    29.80F
$$


........................KEY........................
SKY/WX - SKY CONDITION/WEATHER
TMP    - TEMPERATURE IN FAHRENHEIT
DP     - DEWPOINT IN FAHRENHEIT
RH     - RELATIVE HUMIDITY IN PERCENT
WIND   - DIRECTION AND SPEED IN MILES PER HOUR (MPH)
VRB    - VARIABLE WIND DIRECTION
PRES   - MEAN SEA LEVEL PRESSURE IN INCHES OF MERCURY
         F - FALLING PRESSURE   R - RISING PRESSURE
         S - STEADY PRESSURE
VSB    - VISIBILITY IN MILES
HX     - HEAT INDEX IN FAHRENHEIT
WCI    - WIND CHILL INDEX IN FAHRENHEIT
TC     - TEMPERATURE IN CELSIUS WHICH IS ALSO KNOWN AS
         TEMPERATURE IN CENTIGRADE
AFB    - AIR FORCE BASE
         LUKE AFB IS LUKE AIR FORCE BASE
         DAVIS-MONTHAN IS DAVIS-MONTHAN AIR FORCE BASE
NAS    - NAVAL AIR STATION
         EL CENTRO NAS IS EL CENTRO NAVAL AIR STATION
N/A    - NOT AVAILABLE





USA.gov is the U.S. government's official web portal to all federal, state and local government web resources and services.